Location: *
(51.4660°N, 0.3360°W)
Time: 13:32:24
(UTC+00:00)

USA 234 - Pass Details

Date: 19 September 2019
Orbit: 1103 x 1105 km, 123.0° (Epoch: 17 October)

Event Time Altitude Azimuth Distance (km) Brightness Sun altitude
Exits shadow 21:16:03 39° 70° (ENE) 1,606 3.9 -27.4°
Maximum altitude 21:18:25 60° 11° (N) 1,256 3.6 -27.7°
Drops below altitude 10° 21:24:50 10° 294° (WNW) 2,967 6.3 -28.4°
Sets 21:27:20 0° 290° (WNW) 3,926 7.1 -28.7°
